Regional Weather Roundup
Issued by NWS Lake Charles, LA

Home | Current Version | Previous Version | Text Only | Print | Product List | Glossary On
Versions: 1 2 3 4 5 6 7 8 9 10 11 12 13 14 15 16 17 18 19 20 21 22 23 24 25 26 27 28
000
ASUS44 KLCH 301910
RWRLCH
REGIONAL WEATHER ROUNDUP
NATIONAL WEATHER SERVICE LAKE CHARLES LA
200 PM CDT SAT APR 30 2016

Note: "fair" indicates few or no clouds below 12,000 feet with no
significant weather and/or obstructions to visibility.


ACROSS SOUTHEAST TEXAS

CITY           SKY/WX    TMP DP  RH WIND       PRES   REMARKS
BEAUMONT       SUNNY     86  66  51 SE8       29.70S
BEAUMONT CITY  FAIR      85  67  54 E5        29.71S
ORANGE         CLEAR     82  67  61 SE8       29.73S
JASPER         MOSUNNY   81  70  68 SE6       29.73S
$$

ACROSS CENTRAL LOUISIANA

CITY           SKY/WX    TMP DP  RH WIND       PRES   REMARKS
LEESVILLE      CLOUDY    80  69  70 SE8       29.71F
FULLERTON      FAIR      81  68  64 VRB6      29.70F
ALEXANDRIA INT PTSUNNY   80  68  66 SE17G24   29.70F
ESLER FIELD    PTSUNNY   81  69  67 SE15      29.72F
DERIDDER       CLOUDY    79  69  70 E7        29.74F
OAKDALE        MOCLDY    77  69  74 S6        29.72F
OPELOUSAS      FAIR     N/A N/A N/A S5        29.73F
$$

ACROSS SOUTHWEST AND SOUTH CENTRAL LOUISIANA

CITY           SKY/WX    TMP DP  RH WIND       PRES   REMARKS
SULPHUR        PTCLDY    80  69  67 E7        29.73S
LAKE CHARLES   MOSUNNY   79  68  69 VRB3      29.72F
CHENNAULT INT  MOSUNNY   81  70  69 SE6       29.73R
CAMERON PHI    CLEAR     79  70  73 S12       29.75F
DEQUINCY       MOCLDY    79  70  74 SE6       29.73S
JENNINGS       MOCLDY    77  72  83 SE8       29.73S
LAFAYETTE      CLOUDY    71  66  84 VRB6      29.72F
NEW IBERIA     TSTM      70  67  90 E9        29.75F
ABBEVILLE      FAIR      70  68  93 SE7       29.73F
PATTERSON      NOT AVBL
SALT POINT       N/A     69  69 100 SE8       29.79R
$$

SELECTED SITES ACROSS THE REGION

CITY           SKY/WX    TMP DP  RH WIND       PRES   REMARKS
HOUSTON BUSH   MOSUNNY   83  61  47 E7G16     29.70F
HOUSTON HOBBY  PTSUNNY   84  70  62 E8        29.69F
GALVESTON      CLOUDY    80  72  76 E7        29.71F
COLLEGE STAT   SUNNY     83  60  45 N5        29.73F
CONROE         SUNNY     83  62  49 SE7       29.71F
HUNTSVILLE     SUNNY     85  59  41 CALM      29.71F
LUFKIN         SUNNY     82  67  60 VRB7      29.71R
SHREVEPORT     MOSUNNY   82  68  62 SE16      29.70S
MONROE         CLOUDY    75  69  81 VRB6G17   29.75F
NATCHEZ MS     CLOUDY    72  66  83 E13       29.77F
BATON ROUGE    LGT RAIN  67  64  90 E23       29.75F
N.O. INTL ARPT CLOUDY    80  72  76 SE13      29.81F
SLIDELL        CLOUDY    78  74  87 SE9       29.84F
$$

MARINE REPORTS

STATION/POSITION TIME  SKY/WX   TEMP    WIND        PRES    VSBY
                                AIR SEA DIR/SP/G
                 (UTC)          (F)     (DEG/KT/KT) (MB)    (MI)
BUOY 30 S HIGH I 1850            76 77   80/  8/  8 1005.5F
WVE H/P(F/S)=  4/ 8

SEA RIM ST PARK  1900            80     150/  9/ 11 1006.5F
PORT ARTHUR      1800               75  120/  3/  5 1006.6F
SABINE PASS N    1800            77 77  140/  6/  7 1007.7F
TEXAS POINT      NOT AVBL
CALCASIEU PASS   1800            74 78  160/  9/ 11 1005.9S
LK CHARLES BEACH 1800            79 74              1007.2R
MARSH ISLAND     NOT AVBL
FRESH WATER LOCK 1800            69 78   90/ 16/ 20 1008.8R
AMERADA PASS     1800            76 74  140/ 13/ 21 1007.4F
$$




USA.gov is the U.S. government's official web portal to all federal, state and local government web resources and services.